Starlink 34258

operational
NORAD ID: 64211 Int'l Des: 2025-117 Owner: SPXS Country: US Constellation: starlink
LEOCIRCULAR

关于 Starlink 34258

正在加载描述...

实时位置

正在加载3D地球...

即将过境

高度历史

Altitude vs Time

uPlot chart will show altitude changes over time

两行轨道根数

1 64211U 25117J 25340.63391215 .00045843 00000-0 15486-2 0 9994
2 64211 53.1610 111.4695 0002146 85.9585 274.1661 15.30237976 30285
Epoch: Dec 6, 2025 • Age: 15 hours

当前状态

高度 478.2 km
速度 7.63 km/s
星下点 -10.66°S, 127.94°E
发射日期 May 31, 2025
运行时间 0.5 years
类型 internet

技术详情

分类 Payload
质量 575.00 kg
干质量 530.00 kg
总质量 575.00 kg
长度 0.30 m
直径 4.10 m
跨度 29.00 m
形状 Box + pan
制造商 SPXS
平台类型 Starlink V2MO
阶段状态 In Orbit
所有者/国家 SPXS/US

大型星座

Loading constellations...